Location: Buchdorf
(48.7842°N, 10.8275°E)
Time: 01:13:26
(UTC+00:00)

Cosmos 2251 Rocket - Pass Details

Date: 09 April 2020
Orbit: 765 x 791 km, 74.0° (Epoch: 30 May)

Event Time Altitude Azimuth Distance (km) Brightness Sun altitude
Rises 18:21:37 0° 211° (SSW) 3,272 7.0 -4.3°
Reaches altitude 10° 18:24:02 10° 215° (SW) 2,350 6.3 -4.6°
Maximum altitude 18:29:20 64° 296° (WNW) 880 4.2 -5.5°
Drops below altitude 10° 18:34:42 10° 18° (NNE) 2,368 6.1 -6.3°
Sets 18:37:08 0° 22° (NNE) 3,300 6.8 -6.7°
